Location: Im Fang
(46.6019°N, 7.2397°E)
Time: 03:08:00
(UTC+00:00)

Cosmos 724 - Pass Details

Date: 08 December 2019
Orbit: 863 x 932 km, 65.6° (Epoch: 22 January)

Event Time Altitude Azimuth Distance (km) Brightness Sun altitude
Exits shadow 05:00:29 16° 228° (SW) 2,174 6.0 -20.0°
Maximum altitude 05:05:20 67° 309° (NW) 970 4.2 -19.2°
Drops below altitude 10° 05:11:15 10° 32° (NNE) 2,557 6.9 -18.2°
Sets 05:13:45 0° 35° (NE) 3,489 7.7 -17.8°
